This demonstration page uses our WeatherBlox Daily Observations layout. Learn more.

39.51506, -84.39828

Hourly Observations for November 5, 2019

Temp ( °F °C ) Dew Point ( °F °C ) Humidity (%) Winds ( mph kmh ) Pressure ( in mb ) Visibility ( mi km ) Precip ( " mm )
12:15 am 00:15 Cloudy with Light Rain 50 9.9 42 5.6 75 75 WNW 6 9 30.15 1021 10 16.0934 0 0
12:35 am 00:35 Cloudy 50 10 43 6.1 77 77 WNW 5 7 30.16 1021 10 16.0934 0 0
12:55 am 00:55 Cloudy 50 10.2 44 6.8 80 80 W 7 11 30.16 1021 10 16.0934 0 0
1:15 am 01:15 Cloudy 50 9.9 45 7 82 82 W 7 11 30.16 1021 10 16.0934 0 0
1:35 am 01:35 Cloudy with Light Rain 49 9.6 45 7 84 84 W 7 11 30.16 1021 10 16.0934 0 0
1:55 am 01:55 Cloudy with Light Drizzle 49 9.4 44 6.8 84 84 W 3 6 30.16 1021 10 16.0934 0 0
2:15 am 02:15 Cloudy with Light Rain 48 9.1 44 6.9 86 86 W 3 6 30.16 1021 10 16.0934 0 0
2:35 am 02:35 Cloudy with Light Rain 48 8.8 44 6.9 88 88 W 3 6 30.16 1021 10 16.0934 0 0
2:55 am 02:55 Cloudy with Light Rain 47 8.6 45 7 90 90 SW 3 6 30.17 1022 10 16.0934 0 0
3:15 am 03:15 Cloudy with Light Rain 47 8.4 45 7 91 91 SW 3 6 30.17 1022 10 16.0934 0 0
3:35 am 03:35 Cloudy with Light Rain 46 8 45 7.2 95 95 Calm 30.17 1022 7 11.26538 0 0
3:55 am 03:55 Cloudy with Light Rain 46 8 45 7.2 95 95 Calm 30.17 1022 7 11.26538 0 0
4:15 am 04:15 Cloudy with Light Rain 46 8 45 7.1 94 94 WSW 3 6 30.18 1022 7 11.26538 0 0
4:35 am 04:35 Cloudy with Light Rain 46 7.9 45 7.1 95 95 WSW 6 9 30.19 1022 7 11.26538 0 0
4:55 am 04:55 Cloudy with Light Rain 46 7.9 45 7.1 95 95 W 3 6 30.19 1022 7 11.26538 0 0
5:15 am 05:15 Cloudy with Light Rain 46 7.9 45 7 94 94 NW 3 6 30.21 1023 5 8.0467 0 0
5:35 am 05:35 Cloudy with Light Rain 46 7.6 42 5.8 89 89 WNW 8 13 30.22 1023 7 11.26538 0 0
5:55 am 05:55 Cloudy with Rain 45 7.2 43 5.9 92 92 NW 5 7 30.24 1024 5 8.0467 0 0
6:15 am 06:15 Cloudy with Light Rain 44 6.6 41 4.8 88 88 NW 8 13 30.24 1024 7 11.26538 0 0
6:35 am 06:35 Cloudy with Light Rain 43 6.1 40 4.5 90 90 NW 7 11 30.25 1024 10 16.0934 0 0
6:55 am 06:55 Cloudy with Light Rain 42 5.7 39 3.7 87 87 NW 7 11 30.26 1025 10 16.0934 0 0
7:15 am 07:15 Cloudy with Light Rain 42 5.3 39 3.9 91 91 Calm 30.27 1025 7 11.26538 0 0
7:35 am 07:35 Cloudy with Light Rain 41 5.1 38 3.1 87 87 NW 5 7 30.29 1026 7 11.26538 0 0
7:55 am 07:55 Cloudy with Light Rain 41 5 37 3 87 87 W 3 6 30.3 1026 10 16.0934 0 0
8:15 am 08:15 Cloudy with Rain 40 4.7 35 1.9 82 82 Calm 30.29 1026 7 11.26538 0 0
8:35 am 08:35 Mostly Cloudy with Light Rain 40 4.5 37 2.9 89 89 W 3 6 30.31 1027 10 16.0934 0 0
8:55 am 08:55 Cloudy 40 4.5 37 2.9 89 89 SW 5 7 30.32 1027 10 16.0934 0 0
9:15 am 09:15 Cloudy 40 4.7 37 2.8 88 88 WSW 5 7 30.32 1027 10 16.0934 0 0
9:35 am 09:35 Cloudy with Light Rain 40 4.7 38 3.4 91 91 SW 6 9 30.33 1027 10 16.0934 0 0
9:55 am 09:55 Cloudy 41 4.9 37 3 88 88 WSW 7 11 30.32 1027 10 16.0934 0 0
10:15 am 10:15 Mostly Cloudy 41 5.2 38 3.4 88 88 SW 8 13 30.33 1027 10 16.0934 0 0
10:35 am 10:35 Cloudy 42 5.6 39 4 90 90 WSW 8 13 30.33 1027 10 16.0934 0 0
10:55 am 10:55 Partly Cloudy 43 6.3 39 4.1 86 86 SW 7 11 30.32 1027 10 16.0934 0 0
11:15 am 11:15 Partly Cloudy 44 6.8 39 3.9 82 82 W 7 11 30.32 1027 10 16.0934 0 0
11:35 am 11:35 Partly Cloudy 45 7.4 36 2.3 70 70 Calm 30.31 1026 10 16.0934 0 0
11:55 am 11:55 Partly Cloudy 47 8.5 37 2.7 67 67 WSW 7 11 30.3 1026 10 16.0934 0 0
12:15 pm 12:15 Mostly Cloudy 48 8.8 35 1.7 61 61 W 7 11 30.29 1026 10 16.0934 0 0
12:35 pm 12:35 Mostly Cloudy 47 8.5 35 1.7 63 63 NW 6 9 30.29 1026 10 16.0934 0 0
12:55 pm 12:55 Sunny 48 8.8 30 -1.1 50 50 W 9 15 30.29 1026 10 16.0934 0 0
1:15 pm 13:15 Sunny 50 10.2 31 -0.5 48 48 WNW 6 9 30.29 1026 10 16.0934 0 0
1:35 pm 13:35 Partly Cloudy 51 10.5 29 -1.4 44 44 W 13 20 30.29 1026 10 16.0934 0 0
1:55 pm 13:55 Partly Cloudy 49 9.7 28 -2.2 44 44 NW 10 17 30.28 1025 10 16.0934 0 0
2:15 pm 14:15 Mostly Cloudy 51 10.4 29 -1.5 44 44 W 8 13 30.28 1025 10 16.0934 0 0
2:35 pm 14:35 Sunny 51 10.8 29 -1.7 42 42 WNW 9 15 30.28 1025 10 16.0934 0 0
2:55 pm 14:55 Sunny 51 10.8 29 -1.5 43 43 WNW 5 7 30.28 1025 10 16.0934 0 0
3:15 pm 15:15 Sunny 51 10.7 29 -1.9 42 42 WNW 12 19 30.28 1025 10 16.0934 0 0
3:35 pm 15:35 Sunny 51 10.8 30 -1.2 44 44 W 13 20 30.29 1026 10 16.0934 0 0
3:55 pm 15:55 Sunny 51 10.7 31 -0.8 45 45 WNW 10 17 30.3 1026 10 16.0934 0 0
4:15 pm 16:15 Sunny 51 10.4 30 -0.9 46 46 W 10 17 30.3 1026 10 16.0934 0 0
4:35 pm 16:35 Sunny 50 9.9 30 -1.3 46 46 W 12 19 30.31 1026 10 16.0934 0 0
4:55 pm 16:55 Sunny 49 9.4 30 -1 49 49 W 7 11 30.31 1026 10 16.0934 0 0
5:15 pm 17:15 Sunny 48 8.8 30 -1.2 50 50 W 12 19 30.32 1027 10 16.0934 0 0
5:35 pm 17:35 Clear 46 7.9 30 -1.1 53 53 W 8 13 30.33 1027 10 16.0934 0 0
5:55 pm 17:55 Clear 45 7.2 30 -1.1 56 56 W 5 7 30.33 1027 10 16.0934 0 0
6:15 pm 18:15 Clear 44 6.5 30 -1 59 59 WSW 5 7 30.34 1027 10 16.0934 0 0
6:35 pm 18:35 Clear 41 5 33 0.6 73 73 W 3 6 30.35 1028 10 16.0934 0 0
6:55 pm 18:55 Clear 36 2.4 33 0.5 87 87 Calm 30.37 1028 10 16.0934 0 0
7:15 pm 19:15 Clear 36 2.1 33 0.6 90 90 Calm 30.37 1028 10 16.0934 0 0
7:35 pm 19:35 Clear 36 2 33 0.8 92 92 Calm 30.38 1029 10 16.0934 0 0
7:55 pm 19:55 Clear 36 2.4 34 1.2 92 92 Calm 30.38 1029 10 16.0934 0 0
8:15 pm 20:15 Clear 35 1.9 34 0.9 93 93 Calm 30.38 1029 10 16.0934 0 0
8:35 pm 20:35 Clear 35 1.6 33 0.6 93 93 Calm 30.38 1029 10 16.0934 0 0
8:55 pm 20:55 Clear 34 1 32 0.2 94 94 Calm 30.38 1029 10 16.0934 0 0
9:15 pm 21:15 Clear 34 1.1 33 0.6 97 97 Calm 30.4 1030 10 16.0934 0 0
9:35 pm 21:35 Clear 33 0.6 32 0.2 97 97 Calm 30.41 1030 10 16.0934 0 0
9:55 pm 21:55 Clear 33 0.7 32 0.1 96 96 Calm 30.42 1030 10 16.0934 0 0
10:15 pm 22:15 Clear 33 0.7 32 0.1 96 96 Calm 30.42 1030 10 16.0934 0 0
10:35 pm 22:35 Clear 32 0.2 31 -0.7 94 94 Calm 30.44 1031 10 16.0934 0 0
10:55 pm 22:55 Clear 33 0.4 31 -0.3 95 95 Calm 30.42 1030 10 16.0934 0 0
11:15 pm 23:15 Clear 31 -0.4 30 -1 96 96 Calm 30.42 1030 7 11.26538 0 0
11:35 pm 23:35 Clear with Mist and Fog 29 -1.4 29 -1.9 96 96 Calm 30.42 1030 5 8.0467 0 0
11:55 pm 23:55 Clear with Mist and Fog 31 -0.6 30 -0.9 98 98 Calm 30.43 1030 5 8.0467 0 0

Powered by AerisWeather